Time,TemperatureF,DewpointF,PressureIn,WindDirection,WindDirectionDegrees,WindSpeedMPH,WindSpeedGustMPH,Humidity,HourlyPrecipIn,Conditions,Clouds,dailyrainin,SolarRadiationWatts/m^2,SoftwareType,DateUTC
2013-05-24 00:23:00,60.0,60.0,-100.00,SSW,206,0.0,2.0,100,0.03,,,0.49,1.000000,,2013-05-24 04:23:00,
2013-05-24 00:33:00,60.0,60.0,-100.00,SSW,206,0.0,2.0,100,0.03,,,0.49,1.000000,,2013-05-24 04:33:00,
2013-05-24 00:42:00,60.0,60.0,-100.00,SSW,206,0.0,2.0,100,0.03,,,0.49,1.000000,,2013-05-24 04:42:00,
2013-05-24 00:53:00,60.0,60.0,-100.00,SSW,206,0.0,2.0,100,0.03,,,0.49,1.000000,,2013-05-24 04:53:00,
2013-05-24 01:22:00,60.0,60.0,-100.00,West,264,0.0,3.0,100,0.02,,,0.51,1.000000,,2013-05-24 05:22:00,
2013-05-24 01:32:00,60.0,60.0,-100.00,West,264,0.0,3.0,100,0.02,,,0.51,1.000000,,2013-05-24 05:32:00,
2013-05-24 01:42:00,60.0,60.0,-100.00,West,264,0.0,3.0,100,0.02,,,0.51,1.000000,,2013-05-24 05:42:00,
2013-05-24 01:52:00,60.0,60.0,-100.00,West,264,0.0,3.0,100,0.02,,,0.51,1.000000,,2013-05-24 05:52:00,
2013-05-24 02:21:00,60.0,60.0,-100.00,NNW,334,1.0,2.0,100,0.02,,,0.53,1.000000,,2013-05-24 06:21:00,
2013-05-24 02:32:00,60.0,60.0,-100.00,NNW,334,1.0,2.0,100,0.02,,,0.53,1.000000,,2013-05-24 06:32:00,
2013-05-24 02:42:00,60.0,60.0,-100.00,NNW,334,1.0,2.0,100,0.02,,,0.53,1.000000,,2013-05-24 06:42:00,
2013-05-24 02:52:00,60.0,60.0,-100.00,NNW,334,1.0,2.0,100,0.02,,,0.53,1.000000,,2013-05-24 06:52:00,
2013-05-24 03:22:00,60.0,60.0,-100.00,SSW,205,1.0,3.0,100,0.02,,,0.55,1.000000,,2013-05-24 07:22:00,
2013-05-24 03:32:00,60.0,60.0,-100.00,SSW,205,1.0,3.0,100,0.02,,,0.55,1.000000,,2013-05-24 07:32:00,
2013-05-24 03:42:00,60.0,60.0,-100.00,SSW,205,1.0,3.0,100,0.02,,,0.55,1.000000,,2013-05-24 07:42:00,
2013-05-24 03:52:00,60.0,60.0,-100.00,SSW,205,1.0,3.0,100,0.02,,,0.55,1.000000,,2013-05-24 07:52:00,
2013-05-24 04:22:00,60.0,60.0,-100.00,West,272,0.0,2.0,100,0.02,,,0.56,1.000000,,2013-05-24 08:22:00,
2013-05-24 04:33:00,60.0,60.0,-100.00,West,272,0.0,2.0,100,0.02,,,0.56,1.000000,,2013-05-24 08:33:00,
2013-05-24 04:42:00,60.0,60.0,-100.00,West,272,0.0,2.0,100,0.02,,,0.56,1.000000,,2013-05-24 08:42:00,
2013-05-24 04:52:00,60.0,60.0,-100.00,West,272,0.0,2.0,100,0.02,,,0.56,1.000000,,2013-05-24 08:52:00,
2013-05-24 05:22:00,60.0,60.0,-100.00,West,266,3.0,7.0,100,0.02,,,0.58,1.000000,,2013-05-24 09:22:00,
2013-05-24 05:33:00,60.0,60.0,-100.00,West,266,3.0,7.0,100,0.02,,,0.58,1.000000,,2013-05-24 09:33:00,
2013-05-24 05:42:00,60.0,60.0,-100.00,West,266,3.0,7.0,100,0.02,,,0.58,1.000000,,2013-05-24 09:42:00,
2013-05-24 05:52:00,60.0,60.0,-100.00,West,266,3.0,7.0,100,0.02,,,0.58,1.000000,,2013-05-24 09:52:00,
2013-05-24 06:23:00,59.0,59.0,-100.00,West,267,3.0,8.0,100,0.01,,,0.59,1.000000,,2013-05-24 10:23:00,
2013-05-24 06:33:00,59.0,59.0,-100.00,West,267,3.0,8.0,100,0.01,,,0.59,1.000000,,2013-05-24 10:33:00,
2013-05-24 06:42:00,59.0,59.0,-100.00,West,267,3.0,8.0,100,0.01,,,0.59,1.000000,,2013-05-24 10:42:00,
2013-05-24 06:52:00,59.0,59.0,-100.00,West,267,3.0,8.0,100,0.01,,,0.59,1.000000,,2013-05-24 10:52:00,
2013-05-24 07:22:00,50.0,50.0,-100.00,West,265,5.0,13.0,100,0.01,,,0.60,5.000000,,2013-05-24 11:22:00,
2013-05-24 07:32:00,50.0,50.0,-100.00,West,265,5.0,13.0,100,0.01,,,0.60,5.000000,,2013-05-24 11:32:00,
2013-05-24 07:42:00,50.0,50.0,-100.00,West,265,5.0,13.0,100,0.01,,,0.60,5.000000,,2013-05-24 11:42:00,
2013-05-24 07:52:00,50.0,50.0,-100.00,West,265,5.0,13.0,100,0.01,,,0.60,5.000000,,2013-05-24 11:52:00,
2013-05-24 08:22:00,46.0,46.0,-100.00,WSW,258,8.0,18.0,100,0.02,,,0.61,27.000000,,2013-05-24 12:22:00,
2013-05-24 08:33:00,46.0,46.0,-100.00,WSW,258,8.0,18.0,100,0.02,,,0.61,27.000000,,2013-05-24 12:33:00,
2013-05-24 08:42:00,46.0,46.0,-100.00,WSW,258,8.0,18.0,100,0.02,,,0.61,27.000000,,2013-05-24 12:42:00,
2013-05-24 08:52:00,46.0,46.0,-100.00,WSW,258,8.0,18.0,100,0.02,,,0.61,27.000000,,2013-05-24 12:52:00,
2013-05-24 09:22:00,45.0,45.0,-100.00,WSW,238,5.0,17.0,100,0.01,,,0.62,77.000000,,2013-05-24 13:22:00,
2013-05-24 09:32:00,45.0,45.0,-100.00,WSW,238,5.0,17.0,100,0.01,,,0.62,77.000000,,2013-05-24 13:32:00,
2013-05-24 09:42:00,45.0,45.0,-100.00,WSW,238,5.0,17.0,100,0.01,,,0.62,77.000000,,2013-05-24 13:42:00,
2013-05-24 09:52:00,45.0,45.0,-100.00,WSW,238,5.0,17.0,100,0.01,,,0.62,77.000000,,2013-05-24 13:52:00,
2013-05-24 10:22:00,45.0,45.0,-100.00,West,264,5.0,13.0,100,0.01,,,0.57,121.000000,,2013-05-24 14:22:00,
2013-05-24 10:32:00,45.0,45.0,-100.00,West,264,5.0,13.0,100,0.01,,,0.57,121.000000,,2013-05-24 14:32:00,
2013-05-24 10:42:00,45.0,45.0,-100.00,West,264,5.0,13.0,100,0.01,,,0.57,121.000000,,2013-05-24 14:42:00,
2013-05-24 10:52:00,45.0,45.0,-100.00,West,264,5.0,13.0,100,0.01,,,0.57,121.000000,,2013-05-24 14:52:00,
2013-05-24 11:22:00,45.0,45.0,-100.00,SW,228,4.0,15.0,100,0.01,,,0.47,152.000000,,2013-05-24 15:22:00,
2013-05-24 11:33:00,45.0,45.0,-100.00,SW,228,4.0,15.0,100,0.01,,,0.47,152.000000,,2013-05-24 15:33:00,
2013-05-24 11:43:00,45.0,45.0,-100.00,SW,228,4.0,15.0,100,0.01,,,0.47,152.000000,,2013-05-24 15:43:00,
2013-05-24 11:52:00,45.0,45.0,-100.00,SW,228,4.0,15.0,100,0.01,,,0.47,152.000000,,2013-05-24 15:52:00,
2013-05-24 12:22:00,45.0,45.0,-100.00,WSW,247,6.0,16.0,100,0.01,,,0.39,351.000000,,2013-05-24 16:22:00,
2013-05-24 12:32:00,45.0,45.0,-100.00,WSW,247,6.0,16.0,100,0.01,,,0.39,351.000000,,2013-05-24 16:32:00,
2013-05-24 12:42:00,45.0,45.0,-100.00,WSW,247,6.0,16.0,100,0.01,,,0.39,351.000000,,2013-05-24 16:42:00,
2013-05-24 12:52:00,45.0,45.0,-100.00,WSW,247,6.0,16.0,100,0.01,,,0.39,351.000000,,2013-05-24 16:52:00,
2013-05-24 13:22:00,45.0,45.0,-100.00,SSW,196,6.0,21.0,100,0.01,,,0.34,207.000000,,2013-05-24 17:22:00,
2013-05-24 13:32:00,45.0,45.0,-100.00,SSW,196,6.0,21.0,100,0.01,,,0.34,207.000000,,2013-05-24 17:32:00,
2013-05-24 13:42:00,45.0,45.0,-100.00,SSW,196,6.0,21.0,100,0.01,,,0.34,207.000000,,2013-05-24 17:42:00,
2013-05-24 13:52:00,45.0,45.0,-100.00,SSW,196,6.0,21.0,100,0.01,,,0.34,207.000000,,2013-05-24 17:52:00,
2013-05-24 14:22:00,48.0,43.0,-100.00,SSW,194,6.0,21.0,83,0.02,,,0.33,388.000000,,2013-05-24 18:22:00,
2013-05-24 14:32:00,48.0,43.0,-100.00,SSW,194,6.0,21.0,83,0.02,,,0.33,388.000000,,2013-05-24 18:32:00,
2013-05-24 14:42:00,48.0,43.0,-100.00,SSW,194,6.0,21.0,83,0.02,,,0.33,388.000000,,2013-05-24 18:42:00,
2013-05-24 14:52:00,48.0,43.0,-100.00,SSW,194,6.0,21.0,83,0.02,,,0.33,388.000000,,2013-05-24 18:52:00,
2013-05-24 15:21:00,48.0,41.0,-100.00,SW,235,7.0,20.0,78,0.01,,,0.32,340.000000,,2013-05-24 19:21:00,
2013-05-24 15:32:00,48.0,41.0,-100.00,SW,235,7.0,20.0,78,0.01,,,0.32,340.000000,,2013-05-24 19:32:00,
2013-05-24 15:42:00,48.0,41.0,-100.00,SW,235,7.0,20.0,78,0.01,,,0.32,340.000000,,2013-05-24 19:42:00,
2013-05-24 15:52:00,48.0,41.0,-100.00,SW,235,7.0,20.0,78,0.01,,,0.32,340.000000,,2013-05-24 19:52:00,
2013-05-24 16:22:00,48.0,40.0,-100.00,SW,226,6.0,16.0,74,0.01,,,0.32,227.000000,,2013-05-24 20:22:00,
2013-05-24 16:32:00,48.0,40.0,-100.00,SW,226,6.0,16.0,74,0.01,,,0.32,227.000000,,2013-05-24 20:32:00,
2013-05-24 16:42:00,48.0,40.0,-100.00,SW,226,6.0,16.0,74,0.01,,,0.32,227.000000,,2013-05-24 20:42:00,
2013-05-24 16:52:00,48.0,40.0,-100.00,SW,226,6.0,16.0,74,0.01,,,0.32,227.000000,,2013-05-24 20:52:00,
2013-05-24 17:22:00,47.0,40.0,-100.00,SSW,205,9.0,24.0,77,0.02,,,0.33,162.000000,,2013-05-24 21:22:00,
2013-05-24 17:33:00,47.0,40.0,-100.00,SSW,205,9.0,24.0,77,0.02,,,0.33,162.000000,,2013-05-24 21:33:00,
2013-05-24 17:43:00,47.0,40.0,-100.00,SSW,205,9.0,24.0,77,0.02,,,0.33,162.000000,,2013-05-24 21:43:00,
2013-05-24 17:53:00,47.0,40.0,-100.00,SSW,205,9.0,24.0,77,0.02,,,0.33,162.000000,,2013-05-24 21:53:00,
2013-05-24 18:22:00,46.0,41.0,-100.00,SSW,210,7.0,22.0,82,0.01,,,0.34,125.000000,,2013-05-24 22:22:00,
2013-05-24 18:33:00,46.0,41.0,-100.00,SSW,210,7.0,22.0,82,0.01,,,0.34,125.000000,,2013-05-24 22:33:00,
2013-05-24 18:42:00,46.0,41.0,-100.00,SSW,210,7.0,22.0,82,0.01,,,0.34,125.000000,,2013-05-24 22:42:00,
2013-05-24 18:52:00,46.0,41.0,-100.00,SSW,210,7.0,22.0,82,0.01,,,0.34,125.000000,,2013-05-24 22:52:00,
2013-05-24 19:22:00,44.0,41.0,-100.00,SSW,211,8.0,22.0,89,0.01,,,0.35,63.000000,,2013-05-24 23:22:00,
2013-05-24 19:32:00,44.0,41.0,-100.00,SSW,211,8.0,22.0,89,0.01,,,0.35,63.000000,,2013-05-24 23:32:00,
2013-05-24 19:42:00,44.0,41.0,-100.00,SSW,211,8.0,22.0,89,0.01,,,0.35,63.000000,,2013-05-24 23:42:00,
2013-05-24 19:52:00,44.0,41.0,-100.00,SSW,211,8.0,22.0,89,0.01,,,0.35,63.000000,,2013-05-24 23:52:00,
2013-05-24 20:22:00,42.0,39.0,-100.00,SSW,209,8.0,17.0,90,0.01,,,0.36,14.000000,,2013-05-25 00:22:00,
2013-05-24 20:32:00,42.0,39.0,-100.00,SSW,209,8.0,17.0,90,0.01,,,0.36,14.000000,,2013-05-25 00:32:00,
2013-05-24 20:42:00,42.0,39.0,-100.00,SSW,209,8.0,17.0,90,0.01,,,0.36,14.000000,,2013-05-25 00:42:00,
2013-05-24 20:52:00,42.0,39.0,-100.00,SSW,209,8.0,17.0,90,0.01,,,0.36,14.000000,,2013-05-25 00:52:00,
2013-05-24 21:22:00,41.0,41.0,-100.00,SSW,194,6.0,18.0,100,0.01,,,0.37,2.000000,,2013-05-25 01:22:00,
2013-05-24 21:32:00,41.0,41.0,-100.00,SSW,194,6.0,18.0,100,0.01,,,0.37,2.000000,,2013-05-25 01:32:00,
2013-05-24 21:42:00,41.0,41.0,-100.00,SSW,194,6.0,18.0,100,0.01,,,0.37,2.000000,,2013-05-25 01:42:00,
2013-05-24 21:52:00,41.0,41.0,-100.00,SSW,194,6.0,18.0,100,0.01,,,0.37,2.000000,,2013-05-25 01:52:00,
2013-05-24 22:22:00,42.0,42.0,-100.00,SSW,210,5.0,18.0,100,0.01,,,0.36,1.000000,,2013-05-25 02:22:00,
2013-05-24 22:32:00,42.0,42.0,-100.00,SSW,210,5.0,18.0,100,0.01,,,0.36,1.000000,,2013-05-25 02:32:00,
2013-05-24 22:42:00,42.0,42.0,-100.00,SSW,210,5.0,18.0,100,0.01,,,0.36,1.000000,,2013-05-25 02:42:00,
2013-05-24 22:51:00,42.0,42.0,-100.00,SSW,210,5.0,18.0,100,0.01,,,0.36,1.000000,,2013-05-25 02:51:00,
2013-05-24 23:22:00,42.0,42.0,-100.00,SW,215,5.0,16.0,100,0.01,,,0.34,1.000000,,2013-05-25 03:22:00,
2013-05-24 23:33:00,42.0,42.0,-100.00,SW,215,5.0,16.0,100,0.01,,,0.34,1.000000,,2013-05-25 03:33:00,
2013-05-24 23:43:00,42.0,42.0,-100.00,SW,215,5.0,16.0,100,0.01,,,0.34,1.000000,,2013-05-25 03:43:00,
2013-05-24 23:53:00,42.0,42.0,-100.00,SW,215,5.0,16.0,100,0.01,,,0.34,1.000000,,2013-05-25 03:53:00,